Location: Chrome
(40.5765°N, 74.2163°W)
Time: 20:05:44
(UTC+00:00)

Cosmos 614 Rocket - Pass Details

Date: 06 December 2019
Orbit: 733 x 764 km, 74.1° (Epoch: 21 January)

Event Time Altitude Azimuth Distance (km) Brightness Sun altitude
Rises 23:33:11 0° 187° (S) 3,170 7.4 -22.8°
Reaches altitude 10° 23:35:34 10° 183° (S) 2,247 6.6 -23.2°
Enters shadow 23:39:56 54° 136° (SE) 894 4.1 -24.0°
